LLM282 ULPB-UUWW

Flight info

Callsign LLM282
Flight time 1h 20m
Altitude 37000
Route PEMEM T785 RUROS L264 UREPI/K0850F360 P65 ROMTA
Aircraft A320/M-SDE2E3FGHIRWXY/LB1

Departure

Time 2026-04-21 19:18
Airport Petrozavodsk Airport (ULPB)

Arrival

Time 2026-04-21 20:38
Airport Vnukovo International Airport (UUWW)
Time Latitude Longitude Altitude Speed Heading
2026-04-21 18:50 61.87902 34.15574 136 ft 0 kts 113°
2026-04-21 19:06 61.87903 34.15570 135 ft 1 kts 113°
2026-04-21 19:06 61.87909 34.15541 135 ft 2 kts 112°
2026-04-21 19:06 61.87915 34.15512 136 ft 2 kts 113°
2026-04-21 19:07 61.87920 34.15483 137 ft 2 kts 112°
2026-04-21 19:07 61.87926 34.15454 137 ft 2 kts 113°
2026-04-21 19:07 61.87932 34.15424 138 ft 1 kts 112°
2026-04-21 19:08 61.87913 34.15456 137 ft 3 kts 161°
2026-04-21 19:08 61.87891 34.15452 137 ft 1 kts 202°
2026-04-21 19:08 61.87888 34.15449 137 ft 0 kts 203°
2026-04-21 19:14 61.87888 34.15448 137 ft 0 kts 203°
2026-04-21 19:14 61.87858 34.15421 137 ft 8 kts 203°
2026-04-21 19:14 61.87843 34.15311 137 ft 9 kts 291°
2026-04-21 19:14 61.87859 34.15232 138 ft 0 kts 292°
2026-04-21 19:15 61.87862 34.15213 139 ft 6 kts 292°
2026-04-21 19:15 61.87879 34.15130 140 ft 5 kts 292°
2026-04-21 19:16 61.87899 34.15025 141 ft 9 kts 292°
2026-04-21 19:16 61.87940 34.14965 142 ft 6 kts
2026-04-21 19:16 61.87969 34.14986 142 ft 0 kts 23°
2026-04-21 19:17 61.87974 34.14991 142 ft 4 kts 23°
2026-04-21 19:17 61.88196 34.15191 143 ft 74 kts 22°
2026-04-21 19:17 61.88905 34.15831 144 ft 142 kts 22°
2026-04-21 19:18 61.89893 34.16722 579 ft 158 kts 22°
2026-04-21 19:18 61.90860 34.17748 1285 ft 160 kts 38°
2026-04-21 19:18 61.91301 34.19814 1982 ft 164 kts 93°
2026-04-21 19:18 61.90774 34.21906 2510 ft 172 kts 142°
2026-04-21 19:19 61.89653 34.22892 2972 ft 183 kts 165°
2026-04-21 19:19 61.88377 34.23636 3392 ft 199 kts 164°
2026-04-21 19:19 61.86997 34.24512 3796 ft 218 kts 162°
2026-04-21 19:19 61.85486 34.25533 4269 ft 235 kts 161°
2026-04-21 19:20 61.83887 34.26653 4731 ft 255 kts 161°
2026-04-21 19:20 61.82154 34.27884 5249 ft 274 kts 160°
2026-04-21 19:20 61.80316 34.29198 5916 ft 287 kts 160°
2026-04-21 19:20 61.78413 34.30565 6779 ft 292 kts 160°
2026-04-21 19:21 61.76511 34.31930 7645 ft 296 kts 160°
2026-04-21 19:21 61.74549 34.33338 8522 ft 299 kts 160°
2026-04-21 19:21 61.72582 34.34748 9385 ft 303 kts 160°
2026-04-21 19:21 61.70624 34.36151 10197 ft 306 kts 160°
2026-04-21 19:22 61.68562 34.37629 10750 ft 319 kts 159°
2026-04-21 19:22 61.66434 34.39152 11147 ft 337 kts 159°
2026-04-21 19:22 61.64155 34.40777 11501 ft 355 kts 159°
2026-04-21 19:22 61.61775 34.42470 11935 ft 369 kts 159°
2026-04-21 19:23 61.59331 34.44203 12615 ft 375 kts 159°
2026-04-21 19:23 61.56873 34.45953 13333 ft 378 kts 158°
2026-04-21 19:23 61.54401 34.47981 14012 ft 382 kts 154°
2026-04-21 19:23 61.51963 34.50207 14692 ft 386 kts 153°
2026-04-21 19:24 61.49504 34.52465 15355 ft 390 kts 153°
2026-04-21 19:24 61.47031 34.54734 15981 ft 395 kts 153°
2026-04-21 19:24 61.44541 34.57015 16682 ft 396 kts 153°
2026-04-21 19:24 61.42004 34.59332 17394 ft 398 kts 152°
2026-04-21 19:25 61.39489 34.61626 18003 ft 402 kts 152°
2026-04-21 19:25 61.36928 34.63959 18589 ft 405 kts 152°
2026-04-21 19:25 61.34320 34.66331 19166 ft 409 kts 153°
2026-04-21 19:25 61.31717 34.68702 19723 ft 413 kts 153°
2026-04-21 19:26 61.29124 34.71257 20268 ft 413 kts 144°
2026-04-21 19:26 61.27022 34.75098 20778 ft 403 kts 122°
2026-04-21 19:26 61.25678 34.80087 21368 ft 392 kts 105°
2026-04-21 19:26 61.24783 34.85376 21939 ft 393 kts 103°
2026-04-21 19:27 61.23888 34.90780 22460 ft 397 kts 103°
2026-04-21 19:27 61.22989 34.96141 22982 ft 401 kts 103°
2026-04-21 19:27 61.22049 35.01651 23408 ft 406 kts 103°
2026-04-21 19:27 61.21094 35.07188 23808 ft 412 kts 103°
2026-04-21 19:28 61.20126 35.12744 24290 ft 415 kts 103°
2026-04-21 19:28 61.19149 35.18330 24788 ft 417 kts 103°
2026-04-21 19:28 61.18147 35.24017 25306 ft 419 kts 103°
2026-04-21 19:28 61.17150 35.29660 25774 ft 421 kts 103°
2026-04-21 19:29 61.16145 35.35336 26251 ft 423 kts 103°
2026-04-21 19:29 61.15131 35.41049 26713 ft 425 kts 103°
2026-04-21 19:29 61.14106 35.46799 27154 ft 427 kts 103°
2026-04-21 19:29 61.13083 35.52531 27579 ft 429 kts 103°
2026-04-21 19:30 61.12051 35.58280 27976 ft 431 kts 103°
2026-04-21 19:30 61.11009 35.64071 28344 ft 433 kts 103°
2026-04-21 19:30 61.09954 35.69920 28732 ft 434 kts 103°
2026-04-21 19:30 61.08911 35.75708 29050 ft 436 kts 103°
2026-04-21 19:31 61.07853 35.81598 29360 ft 438 kts 103°
2026-04-21 19:31 61.06786 35.87523 29677 ft 439 kts 103°
2026-04-21 19:31 61.05722 35.93407 29959 ft 441 kts 103°
2026-04-21 19:31 61.04659 35.99265 30338 ft 439 kts 103°
2026-04-21 19:32 61.03584 36.05157 30783 ft 436 kts 103°
2026-04-21 19:32 61.02520 36.10967 31186 ft 434 kts 103°
2026-04-21 19:32 61.01463 36.16744 31524 ft 432 kts 103°
2026-04-21 19:32 61.00263 36.22394 31795 ft 439 kts 109°
2026-04-21 19:33 60.99265 36.26051 31982 ft 443 kts 114°
2026-04-21 19:33 60.96811 36.32963 32351 ft 452 kts 123°
2026-04-21 19:33 60.94615 36.37612 32618 ft 459 kts 130°
2026-04-21 19:33 60.92128 36.41735 32869 ft 465 kts 137°
2026-04-21 19:34 60.89381 36.45236 33132 ft 471 kts 145°
2026-04-21 19:34 60.86491 36.48234 33407 ft 469 kts 147°
2026-04-21 19:34 60.83585 36.51145 33657 ft 468 kts 147°
2026-04-21 19:34 60.80655 36.54071 33845 ft 467 kts 148°
2026-04-21 19:35 60.77732 36.57000 34042 ft 467 kts 147°
2026-04-21 19:35 60.71928 36.62849 34360 ft 468 kts 148°
2026-04-21 19:35 60.69053 36.65752 34525 ft 468 kts 148°
2026-04-21 19:36 60.66141 36.68702 34678 ft 468 kts 148°
2026-04-21 19:36 60.63256 36.71621 34808 ft 468 kts 149°
2026-04-21 19:36 60.60349 36.74554 34938 ft 469 kts 149°
2026-04-21 19:36 60.57436 36.77482 35080 ft 469 kts 149°
2026-04-21 19:37 60.54527 36.80399 35184 ft 469 kts 149°
2026-04-21 19:37 60.51603 36.83322 35295 ft 470 kts 149°
2026-04-21 19:37 60.48692 36.86227 35400 ft 471 kts 149°
2026-04-21 19:38 60.42815 36.92071 35608 ft 473 kts 149°
2026-04-21 19:38 60.37920 36.96923 35747 ft 473 kts 149°
2026-04-21 19:38 60.33986 37.00805 35896 ft 473 kts 149°
2026-04-21 19:39 60.31031 37.03716 36036 ft 473 kts 149°
2026-04-21 19:39 60.25141 37.09502 36221 ft 474 kts 150°
2026-04-21 19:40 60.19194 37.15325 36380 ft 476 kts 150°
2026-04-21 19:40 60.13280 37.21085 36536 ft 477 kts 150°
2026-04-21 19:41 60.07288 37.26902 36705 ft 478 kts 150°
2026-04-21 19:41 60.01352 37.32636 36860 ft 479 kts 150°
2026-04-21 19:42 59.95338 37.38426 36880 ft 480 kts 150°
2026-04-21 19:42 59.89364 37.44156 36891 ft 480 kts 150°
2026-04-21 19:43 59.83336 37.49887 36885 ft 480 kts 150°
2026-04-21 19:43 59.77356 37.55563 36884 ft 480 kts 150°
2026-04-21 19:44 59.71382 37.61230 36893 ft 479 kts 150°
2026-04-21 19:44 59.65389 37.66888 36888 ft 480 kts 152°
2026-04-21 19:45 59.59409 37.72512 36884 ft 480 kts 152°
2026-04-21 19:45 59.53373 37.78158 36886 ft 480 kts 152°
2026-04-21 19:46 59.47387 37.83735 36887 ft 479 kts 152°
2026-04-21 19:46 59.41364 37.89325 36887 ft 479 kts 152°
2026-04-21 19:47 59.35351 37.94794 36889 ft 480 kts 155°
2026-04-21 19:47 59.28987 37.98766 36892 ft 484 kts 165°
2026-04-21 19:48 59.22336 38.00502 36894 ft 487 kts 176°
2026-04-21 19:48 59.15610 38.00023 36896 ft 488 kts 184°
2026-04-21 19:49 59.08868 37.98873 36900 ft 489 kts 184°
2026-04-21 19:49 59.02131 37.97762 36895 ft 488 kts 183°
2026-04-21 19:50 58.96486 37.96858 36893 ft 488 kts 183°
2026-04-21 19:50 58.88614 37.95612 36887 ft 488 kts 183°
2026-04-21 19:51 58.81905 37.94550 36894 ft 488 kts 184°
2026-04-21 19:51 58.75155 37.93476 36881 ft 486 kts 184°
2026-04-21 19:51 58.71806 37.92944 36772 ft 479 kts 183°
2026-04-21 19:52 58.68556 37.92430 36427 ft 474 kts 183°
2026-04-21 19:52 58.65287 37.91943 36068 ft 474 kts 182°
2026-04-21 19:52 58.61969 37.91488 35912 ft 476 kts 182°
2026-04-21 19:53 58.55390 37.90605 35901 ft 477 kts 182°
2026-04-21 19:53 58.48801 37.89721 35892 ft 477 kts 182°
2026-04-21 19:54 58.42202 37.88833 35887 ft 477 kts 182°
2026-04-21 19:54 58.35622 37.87949 35886 ft 477 kts 182°
2026-04-21 19:55 58.29003 37.87064 35873 ft 478 kts 182°
2026-04-21 19:55 58.22425 37.86186 35870 ft 478 kts 182°
2026-04-21 19:56 58.15806 37.85309 35877 ft 477 kts 182°
2026-04-21 19:56 58.09206 37.84436 35882 ft 478 kts 182°
2026-04-21 19:57 58.02614 37.83567 35880 ft 478 kts 182°
2026-04-21 19:57 57.96015 37.82703 35891 ft 477 kts 182°
2026-04-21 19:58 57.89424 37.81844 35894 ft 477 kts 183°
2026-04-21 19:58 57.82819 37.80985 35893 ft 477 kts 183°
2026-04-21 19:59 57.76213 37.80057 35893 ft 477 kts 183°
2026-04-21 19:59 57.69625 37.79104 35896 ft 477 kts 183°
2026-04-21 20:00 57.63084 37.78171 35665 ft 471 kts 183°
2026-04-21 20:00 57.59814 37.77708 35155 ft 470 kts 183°
2026-04-21 20:00 57.56565 37.77251 34605 ft 470 kts 183°
2026-04-21 20:00 57.53369 37.76801 34092 ft 469 kts 183°
2026-04-21 20:01 57.50129 37.76346 33599 ft 468 kts 183°
2026-04-21 20:01 57.46872 37.75889 33100 ft 470 kts 183°
2026-04-21 20:01 57.43650 37.75452 32578 ft 471 kts 183°
2026-04-21 20:01 57.40379 37.75027 32050 ft 473 kts 183°
2026-04-21 20:02 57.37121 37.74607 31503 ft 474 kts 183°
2026-04-21 20:02 57.33868 37.74189 30932 ft 475 kts 183°
2026-04-21 20:02 57.30552 37.73763 30238 ft 476 kts 183°
2026-04-21 20:02 57.27274 37.73341 29493 ft 476 kts 184°
2026-04-21 20:03 57.24028 37.72923 28931 ft 471 kts 184°
2026-04-21 20:03 57.20781 37.72507 28457 ft 465 kts 184°
2026-04-21 20:03 57.17565 37.72093 27925 ft 460 kts 184°
2026-04-21 20:03 57.14390 37.71684 27362 ft 457 kts 184°
2026-04-21 20:04 57.11290 37.70915 26980 ft 448 kts 192°
2026-04-21 20:04 57.08367 37.69457 26785 ft 436 kts 200°
2026-04-21 20:04 57.05559 37.67471 26578 ft 424 kts 203°
2026-04-21 20:04 57.02870 37.65442 26228 ft 418 kts 204°
2026-04-21 20:05 57.00197 37.63412 25770 ft 414 kts 204°
2026-04-21 20:05 56.97567 37.61429 25308 ft 411 kts 203°
2026-04-21 20:05 56.94943 37.59467 24839 ft 408 kts 203°
2026-04-21 20:05 56.92322 37.57521 24375 ft 405 kts 203°
2026-04-21 20:06 56.89732 37.55607 23896 ft 402 kts 203°
2026-04-21 20:06 56.87127 37.53694 23403 ft 400 kts 203°
2026-04-21 20:06 56.84547 37.51806 22922 ft 397 kts 203°
2026-04-21 20:06 56.82039 37.49971 22452 ft 394 kts 203°
2026-04-21 20:07 56.79515 37.48123 21983 ft 391 kts 203°
2026-04-21 20:07 56.76996 37.46278 21516 ft 388 kts 203°
2026-04-21 20:07 56.74491 37.44447 21040 ft 386 kts 203°
2026-04-21 20:07 56.72042 37.42657 20581 ft 383 kts 203°
2026-04-21 20:08 56.69592 37.40870 20125 ft 380 kts 203°
2026-04-21 20:08 56.67167 37.39104 19913 ft 378 kts 203°
2026-04-21 20:08 56.64727 37.37288 19906 ft 379 kts 204°
2026-04-21 20:08 56.62307 37.35447 19903 ft 379 kts 204°
2026-04-21 20:09 56.59882 37.33593 19902 ft 379 kts 203°
2026-04-21 20:09 56.57445 37.31731 19903 ft 379 kts 203°
2026-04-21 20:09 56.55022 37.29892 19903 ft 379 kts 203°
2026-04-21 20:09 56.52563 37.28056 19903 ft 380 kts 202°
2026-04-21 20:10 56.50104 37.26336 19904 ft 380 kts 201°
2026-04-21 20:10 56.47654 37.24663 19902 ft 380 kts 201°
2026-04-21 20:10 56.45194 37.22982 19757 ft 374 kts 201°
2026-04-21 20:10 56.42783 37.21317 19272 ft 373 kts 202°
2026-04-21 20:11 56.40397 37.19603 18763 ft 372 kts 202°
2026-04-21 20:11 56.38004 37.17862 18311 ft 370 kts 202°
2026-04-21 20:11 56.35641 37.16145 17869 ft 367 kts 202°
2026-04-21 20:11 56.33294 37.14449 17425 ft 365 kts 202°
2026-04-21 20:12 56.30953 37.12766 17019 ft 361 kts 201°
2026-04-21 20:12 56.28571 37.11257 16909 ft 362 kts 197°
2026-04-21 20:12 56.26186 37.09989 16891 ft 363 kts 196°
2026-04-21 20:12 56.23767 37.08725 16888 ft 363 kts 196°
2026-04-21 20:13 56.21331 37.07458 16892 ft 363 kts 196°
2026-04-21 20:13 56.18901 37.06195 16890 ft 363 kts 196°
2026-04-21 20:13 56.16491 37.04942 16883 ft 363 kts 196°
2026-04-21 20:13 56.14084 37.03692 16899 ft 362 kts 196°
2026-04-21 20:14 56.11675 37.02441 16891 ft 362 kts 196°
2026-04-21 20:14 56.09224 37.01169 16895 ft 362 kts 196°
2026-04-21 20:14 56.06833 36.99930 16893 ft 362 kts 196°
2026-04-21 20:14 56.04390 36.98667 16887 ft 362 kts 196°
2026-04-21 20:15 56.01992 36.97429 16879 ft 363 kts 196°
2026-04-21 20:15 55.99575 36.96181 16893 ft 363 kts 196°
2026-04-21 20:15 55.97149 36.94918 16910 ft 363 kts 196°
2026-04-21 20:15 55.94708 36.93806 16912 ft 362 kts 190°
2026-04-21 20:16 55.92207 36.93338 16895 ft 361 kts 180°
2026-04-21 20:16 55.89704 36.93515 16918 ft 361 kts 174°
2026-04-21 20:16 55.87226 36.93878 16897 ft 361 kts 174°
2026-04-21 20:16 55.84748 36.94265 16908 ft 361 kts 174°
2026-04-21 20:17 55.82257 36.94640 16880 ft 360 kts 174°
2026-04-21 20:17 55.79728 36.95001 16888 ft 360 kts 174°
2026-04-21 20:17 55.77276 36.95340 16941 ft 351 kts 174°
2026-04-21 20:17 55.74893 36.95663 16937 ft 338 kts 174°
2026-04-21 20:18 55.73338 36.95923 16926 ft 336 kts 171°
2026-04-21 20:18 55.70256 36.96741 16909 ft 335 kts 169°
2026-04-21 20:18 55.67974 36.97390 16890 ft 335 kts 169°
2026-04-21 20:18 55.65662 36.98046 16899 ft 334 kts 169°
2026-04-21 20:19 55.63398 36.98683 16672 ft 330 kts 169°
2026-04-21 20:19 55.61121 36.99316 16189 ft 330 kts 170°
2026-04-21 20:19 55.58855 36.99726 15776 ft 330 kts 175°
2026-04-21 20:19 55.56584 36.99804 15419 ft 328 kts 178°
2026-04-21 20:20 55.54290 36.99800 15019 ft 326 kts 179°
2026-04-21 20:20 55.52053 36.99788 14602 ft 324 kts 178°
2026-04-21 20:20 55.49791 36.99781 14251 ft 323 kts 178°
2026-04-21 20:20 55.47580 36.99782 13869 ft 321 kts 178°
2026-04-21 20:21 55.45354 36.99781 13472 ft 320 kts 178°
2026-04-21 20:21 55.43134 36.99778 13092 ft 318 kts 178°
2026-04-21 20:21 55.40940 36.99749 12739 ft 316 kts 180°
2026-04-21 20:21 55.38752 36.99446 12362 ft 315 kts 184°
2026-04-21 20:22 55.36603 36.99037 11980 ft 313 kts 185°
2026-04-21 20:22 55.32329 36.98198 11264 ft 309 kts 184°
2026-04-21 20:22 55.30226 36.97791 11084 ft 300 kts 184°
2026-04-21 20:23 55.28170 36.97398 10911 ft 291 kts 183°
2026-04-21 20:23 55.26194 36.97458 10685 ft 281 kts 167°
2026-04-21 20:23 55.24341 36.98258 10374 ft 277 kts 159°
2026-04-21 20:23 55.22504 36.99260 10019 ft 276 kts 159°
2026-04-21 20:24 55.20685 37.00267 9681 ft 275 kts 159°
2026-04-21 20:24 55.18871 37.01246 9392 ft 271 kts 159°
2026-04-21 20:24 55.17077 37.02190 9225 ft 263 kts 160°
2026-04-21 20:24 55.15359 37.03085 8981 ft 259 kts 159°
2026-04-21 20:25 55.13761 37.04408 8636 ft 250 kts 131°
2026-04-21 20:25 55.12933 37.06867 8348 ft 233 kts 96°
2026-04-21 20:25 55.12986 37.09590 8034 ft 223 kts 68°
2026-04-21 20:25 55.13690 37.11947 7919 ft 221 kts 57°
2026-04-21 20:26 55.14487 37.14291 7911 ft 223 kts 57°
2026-04-21 20:26 55.15257 37.16625 7908 ft 224 kts 58°
2026-04-21 20:26 55.16031 37.19000 7907 ft 224 kts 58°
2026-04-21 20:26 55.16798 37.21366 7904 ft 224 kts 58°
2026-04-21 20:27 55.17558 37.23720 7903 ft 224 kts 58°
2026-04-21 20:27 55.18325 37.26098 7903 ft 224 kts 58°
2026-04-21 20:27 55.19092 37.28478 7903 ft 224 kts 58°
2026-04-21 20:27 55.19855 37.30851 7903 ft 224 kts 58°
2026-04-21 20:28 55.20620 37.33227 7904 ft 224 kts 58°
2026-04-21 20:28 55.21512 37.35449 7881 ft 221 kts 38°
2026-04-21 20:28 55.22854 37.36563 7697 ft 217 kts
2026-04-21 20:28 55.24366 37.36689 7336 ft 220 kts
2026-04-21 20:29 55.25890 37.36756 6972 ft 221 kts
2026-04-21 20:29 55.27443 37.36840 6640 ft 220 kts
2026-04-21 20:29 55.28957 37.36926 6327 ft 220 kts
2026-04-21 20:29 55.30475 37.37003 6013 ft 219 kts
2026-04-21 20:30 55.31955 37.36337 5652 ft 225 kts 330°
2026-04-21 20:30 55.33099 37.34493 5373 ft 227 kts 316°
2026-04-21 20:30 55.34174 37.32467 5022 ft 227 kts 317°
2026-04-21 20:30 55.35255 37.30452 4712 ft 227 kts 317°
2026-04-21 20:31 55.36342 37.28440 4417 ft 226 kts 317°
2026-04-21 20:31 55.37418 37.26451 4114 ft 225 kts 317°
2026-04-21 20:31 55.38481 37.24474 3817 ft 224 kts 317°
2026-04-21 20:31 55.39538 37.22504 3520 ft 223 kts 317°
2026-04-21 20:32 55.40601 37.20524 3229 ft 221 kts 317°
2026-04-21 20:32 55.41650 37.18571 3028 ft 218 kts 317°
2026-04-21 20:32 55.42698 37.16617 3021 ft 220 kts 317°
2026-04-21 20:32 55.43761 37.14678 3011 ft 220 kts 320°
2026-04-21 20:33 55.44897 37.12898 3009 ft 219 kts 323°
2026-04-21 20:33 55.46062 37.11152 3011 ft 220 kts 323°
2026-04-21 20:33 55.47219 37.09425 3008 ft 214 kts 323°
2026-04-21 20:33 55.48314 37.07781 3002 ft 200 kts 323°
2026-04-21 20:34 55.49451 37.06413 2995 ft 194 kts 338°
2026-04-21 20:34 55.50667 37.05564 2936 ft 178 kts 344°
2026-04-21 20:34 55.51767 37.04919 2761 ft 161 kts 345°
2026-04-21 20:34 55.52803 37.04367 2541 ft 150 kts 355°
2026-04-21 20:35 55.53802 37.04654 2530 ft 147 kts 29°
2026-04-21 20:35 55.54489 37.05962 2535 ft 146 kts 57°
2026-04-21 20:35 55.54935 37.07518 2537 ft 141 kts 62°
2026-04-21 20:35 55.55328 37.09079 2448 ft 139 kts 63°
2026-04-21 20:36 55.55695 37.10655 2263 ft 138 kts 64°
2026-04-21 20:36 55.56047 37.12226 2062 ft 137 kts 64°
2026-04-21 20:36 55.56395 37.13788 1883 ft 137 kts 65°
2026-04-21 20:36 55.56742 37.15348 1691 ft 136 kts 65°
2026-04-21 20:37 55.57093 37.16921 1504 ft 136 kts 65°
2026-04-21 20:37 55.57428 37.18469 1294 ft 136 kts 64°
2026-04-21 20:37 55.57786 37.20013 1122 ft 136 kts 65°
2026-04-21 20:37 55.58134 37.21569 906 ft 136 kts 66°
2026-04-21 20:38 55.58477 37.23108 763 ft 134 kts 66°
2026-04-21 20:38 55.58815 37.24601 638 ft 124 kts 66°
2026-04-21 20:38 55.59086 37.25794 642 ft 80 kts 68°
2026-04-21 20:38 55.59229 37.26423 653 ft 31 kts 63°
2026-04-21 20:39 55.59318 37.26636 657 ft 19 kts 40°
2026-04-21 20:39 55.59415 37.26781 660 ft 12 kts 39°
2026-04-21 20:39 55.59471 37.26868 664 ft 9 kts 29°
2026-04-21 20:39 55.59504 37.26874 664 ft 0 kts 346°
2026-04-21 20:40 55.59512 37.26871 665 ft 5 kts 346°
2026-04-21 20:40 55.59585 37.26904 666 ft 13 kts 40°
2026-04-21 20:40 55.59670 37.27060 667 ft 20 kts 46°
2026-04-21 20:41 55.59770 37.27247 667 ft 20 kts 46°
2026-04-21 20:41 55.59864 37.27422 667 ft 13 kts 47°
2026-04-21 20:41 55.59901 37.27493 668 ft 7 kts 46°
2026-04-21 20:41 55.59939 37.27567 668 ft 8 kts 56°
2026-04-21 20:42 55.59952 37.27679 668 ft 9 kts 79°
2026-04-21 20:42 55.59981 37.27764 670 ft 7 kts 44°
2026-04-21 20:42 55.60018 37.27821 671 ft 7 kts 40°
2026-04-21 20:42 55.60046 37.27863 671 ft 0 kts 39°